Weather History for Eagle, CO

Change the Weather History Date:

Thursday, March 27, 2014

  Actual Average Record
Temperature  
Mean Temperature 38 °F -  
Max Temperature 44 °F 51 °F 70 °F (1986)
Min Temperature 32 °F 23 °F 5 °F (1952)
Degree Days  
Heating Degree Days 27    
Moisture  
Dew Point 31 °F    
Average Humidity 89    
Maximum Humidity 100    
Minimum Humidity 39    
Precipitation  
Precipitation 0.04 in - - ()
Sea Level Pressure  
Sea Level Pressure 29.74 in    
Wind  
Wind Speed 5 mph (West)    
Max Wind Speed 21 mph    
Max Gust Speed 28 mph    
Visibility 8 miles    
Events Rain , Snow    
Averages and records for this station are not official NWS values.
T = Trace of Precipitation, MM = Missing Value Source: NWS Daily Summary

Daily Weather History Graph

Daily Weather History Graph

Search for Another Location

Airport:

Trip Planner

Search our weather history database for the weather conditions in past years. The results will help you decide how hot, cold, wet, or windy it might be!

Date:

Astronomy

Mar. 27, 2014 Rise Set
Actual Time 6:59 AM MDT 7:26 PM MDT
Civil Twilight 6:32 AM MDT 7:53 PM MDT
Nautical Twilight 6:01 AM MDT 8:25 PM MDT
Astronomical Twilight 5:28 AM MDT 8:58 PM MDT
Moon 4:52 AM MDT (3/27) 4:18 PM MDT (3/27)
Length of Visible Light 13h 21m
Length of Day
12h 27m
Waning Crescent, 12% of the Moon is Illuminated
Mar 27
Waning Crescent
Mar 30
New
Apr 7
First Quarter
Apr 15
Full
Apr 22
Last Quarter

Hourly Weather History & Observations

Time (MDT) Temp. Windchill Dew Point Humidity Pressure Visibility Wind Dir Wind Speed Gust Speed Precip Events Conditions
12:15 AM 35.6 °F 27.5 °F 33.8 °F 93% 29.57 in 9.0 mi NW 11.5 mph 16.1 mph N/A   Mostly Cloudy
12:35 AM 33.8 °F 28.6 °F 32.0 °F 93% 29.58 in 5.0 mi SW 5.8 mph - 0.04 in   Overcast
12:55 AM 33.8 °F 29.6 °F 33.8 °F 100% 29.57 in 10.0 mi WSW 4.6 mph - 0.04 in   Overcast
1:15 AM 33.8 °F 29.6 °F 33.8 °F 100% 29.58 in 10.0 mi NNW 4.6 mph - N/A   Mostly Cloudy
1:35 AM 33.8 °F 29.6 °F 33.8 °F 100% 29.59 in 10.0 mi NW 4.6 mph - N/A   Mostly Cloudy
1:55 AM 33.8 °F 30.8 °F 32.0 °F 93% 29.60 in 10.0 mi NNW 3.5 mph - N/A   Overcast
2:15 AM 33.8 °F 29.6 °F 32.0 °F 93% 29.60 in 10.0 mi NW 4.6 mph - N/A   Overcast
2:35 AM 33.8 °F 29.6 °F 33.8 °F 100% 29.61 in 10.0 mi WNW 4.6 mph - N/A   Overcast
2:55 AM 33.8 °F 30.8 °F 33.8 °F 100% 29.62 in 10.0 mi North 3.5 mph - N/A   Overcast
3:15 AM 33.8 °F 29.6 °F 33.8 °F 100% 29.62 in 10.0 mi West 4.6 mph - N/A   Overcast
3:35 AM 33.8 °F 30.8 °F 33.8 °F 100% 29.63 in 10.0 mi SW 3.5 mph - N/A   Mostly Cloudy
3:55 AM 33.8 °F 28.6 °F 32.0 °F 93% 29.64 in 10.0 mi West 5.8 mph - N/A   Mostly Cloudy
4:15 AM 33.8 °F - 32.0 °F 93% 29.65 in 10.0 mi Calm Calm - N/A   Overcast
4:35 AM 33.8 °F - 32.0 °F 93% 29.65 in 10.0 mi Calm Calm - N/A   Mostly Cloudy
4:55 AM 33.8 °F - 32.0 °F 93% 29.66 in 10.0 mi Calm Calm - N/A   Overcast
5:15 AM 33.8 °F - 32.0 °F 93% 29.67 in 10.0 mi Calm Calm - N/A   Overcast
5:35 AM 33.8 °F - 30.2 °F 87% 29.68 in 10.0 mi Calm Calm - N/A   Mostly Cloudy
5:55 AM 32.0 °F 25.6 °F 30.2 °F 93% 29.69 in 10.0 mi ESE 6.9 mph - N/A   Mostly Cloudy
6:15 AM 32.0 °F 28.7 °F 30.2 °F 93% 29.70 in 10.0 mi SE 3.5 mph - N/A   Mostly Cloudy
6:35 AM 33.8 °F 26.4 °F 30.2 °F 87% 29.72 in 10.0 mi West 9.2 mph - N/A   Overcast
6:50 AM 33.8 °F 27.0 °F 30.2 °F 87% 29.73 in 5.0 mi WSW 8.1 mph 20.7 mph N/A Snow Light Snow
7:50 AM 33.8 °F - 30.2 °F 87% 29.77 in 7.0 mi Calm Calm - N/A   Overcast
8:50 AM 33.8 °F - 32.0 °F 93% 29.79 in 10.0 mi Calm Calm - N/A   Overcast
9:50 AM 35.6 °F - 33.8 °F 93% 29.80 in 10.0 mi Calm Calm - N/A   Mostly Cloudy
10:55 AM 35.6 °F 31.7 °F 24.8 °F 65% 29.82 in 10.0 mi SSW 4.6 mph - N/A   Mostly Cloudy
11:50 AM 39.2 °F 35.0 °F 24.8 °F 56% 29.82 in 10.0 mi SW 5.8 mph - N/A   Mostly Cloudy
12:55 PM 39.2 °F - 26.6 °F 61% 29.80 in 10.0 mi Calm Calm - N/A   Mostly Cloudy
1:50 PM 44.6 °F 37.2 °F 21.2 °F 39% 29.78 in 10.0 mi SSW 17.3 mph 20.7 mph N/A   Mostly Cloudy
2:50 PM 39.2 °F 32.0 °F 28.4 °F 65% 29.79 in 10.0 mi West 11.5 mph - N/A   Mostly Cloudy
3:50 PM 35.6 °F 24.5 °F 30.2 °F 81% 29.80 in 0.5 mi WNW 20.7 mph 27.6 mph N/A Rain , Snow Rain
4:50 PM 33.8 °F 26.4 °F 32.0 °F 93% 29.83 in 0.5 mi NW 9.2 mph - N/A Snow Light Snow
5:25 PM 33.8 °F - 32.0 °F 93% 29.83 in 5.0 mi Calm Calm - N/A   Mostly Cloudy
5:50 PM 35.6 °F 30.7 °F 33.8 °F 93% 29.82 in 10.0 mi NE 5.8 mph - N/A   Scattered Clouds
6:50 PM 33.8 °F 28.6 °F 32.0 °F 93% 29.84 in 10.0 mi NE 5.8 mph - N/A   Mostly Cloudy
7:30 PM 33.8 °F 27.0 °F 30.2 °F 87% 29.86 in 1.0 mi WNW 8.1 mph - N/A Snow Light Snow
7:50 PM 33.8 °F 27.7 °F 30.2 °F 87% 29.86 in 3.0 mi SE 6.9 mph - N/A Snow Light Snow
8:50 PM 32.0 °F 28.7 °F 30.2 °F 93% 29.88 in 10.0 mi NE 3.5 mph - N/A   Partly Cloudy
9:50 PM 32.0 °F 26.4 °F 30.2 °F 93% 29.92 in 8.0 mi SE 5.8 mph - N/A Snow Light Snow
10:50 PM 32.0 °F - 30.2 °F 93% 29.93 in 4.0 mi Calm Calm - N/A Snow Light Snow
11:15 PM 32.0 °F - 30.2 °F 93% 29.94 in 2.5 mi Calm Calm - N/A   Overcast
11:35 PM 32.0 °F - 30.2 °F 93% 29.94 in 6.0 mi Calm Calm - N/A   Overcast
11:55 PM 32.0 °F 28.7 °F 30.2 °F 93% 29.95 in 10.0 mi West 3.5 mph - N/A   Overcast